[[{"header":{"parameterUnit":"m.s-1","parameterCategory":1,"la1":30.2991,"la2":30.254,"lo1":-89.0895,"lo2":-89.0444,"dy":0.0017,"dx":0.0017,"nx":28,"ny":28,"refTime":"2025-09-16T03:00:00:Z","depth":0,"parameterNumber":2,"parameterNumberName":"U-component_of_WINDS"},"data":[0,0,0,0,0,0,0,0,0,0,0,0,0,0,0,0,0,0,0,0,0,0,0,0,0,0,0,0,0,0,0,0,0,0,0,0,0,0,0,0,0,0,0,0,0,0,0,0,0,0,0,0,0,0,0,0,0,0,0.3812,0.3813,0,0.3856,0.3856,0.3857,0.3898,0.3898,0.3899,0.3899,0.3942,0.3942,0.3943,0,0,0,0,0,0,0,0,0,0,0,0,0,0.3761,0.3762,0.3812,0.3813,0.3813,0.3855,0.3856,0.3857,0.3898,0.3898,0.3899,0.39,0.3942,0.3942,0.3943,0,0,0,0,0,0,0,0,0,0,0,0,0,0.3792,0.3762,0.3812,0.3839,0.3842,0.3855,0.3856,0.3857,0.3898,0.3898,0.3899,0.39,0.3941,0.3942,0.3943,0.3933,0,0,0.3946,0.3947,0,0,0,0,0,0,0,0,0.379,0.3794,0.3834,0.3837,0.384,0.3872,0.3854,0.3882,0.3897,0.3876,0.3899,0.39,0.3918,0.3921,0.3927,0.3935,0.3937,0.3946,0.3947,0.3947,0.3948,0,0,0,0,0,0,0,0.3788,0.3792,0.3829,0.3835,0.3838,0.3848,0.3853,0.3859,0.3892,0.3878,0.3881,0.3886,0.392,0.3926,0.3928,0.3938,0.3946,0.3947,0.3948,0.3948,0.3938,0.3937,0,0,0,0,0,0,0.3782,0.379,0.3828,0.3831,0.3817,0.3848,0.3854,0.3861,0.3892,0.3898,0.3885,0.3888,0.3924,0.3927,0.393,0.3919,0.3947,0.3948,0.3949,0.3938,0.3937,0.3936,0,0,0,0,0,0,0.3781,0.3785,0.3826,0.3811,0.3817,0.3848,0.3856,0.3862,0.3868,0.3898,0.3903,0.3886,0.3925,0.3929,0.3932,0.3921,0.3949,0.3949,0.3939,0.3938,0.3937,0.3897,0,0,0,0,0,0,0.3779,0.3785,0.3782,0.3811,0.3818,0.3828,0.3855,0.3862,0.387,0.3874,0.39,0.3905,0.3926,0.393,0.3933,0.3923,0.395,0.3941,0.3939,0.3937,0.3899,0.3895,0.389,0,0,0,0,0,0.3777,0.3769,0.3781,0.3786,0.3815,0.3827,0.3831,0.3856,0.3869,0.3866,0.3884,0.3904,0.3922,0.393,0.3933,0.3923,0.3941,0.3939,0.3937,0.3901,0.3895,0.389,0,0,0,0,0,0,0.3737,0.3773,0.3788,0.3788,0.3804,0.3834,0.3831,0.3849,0.3861,0.3864,0.3894,0.3899,0.3898,0.3912,0.392,0.3914,0.3934,0.3933,0.3906,0.39,0.3896,0.3892,0.3951,0,0,0,0,0,0.3729,0.3736,0.3767,0.3765,0.3772,0.38,0.3806,0.3824,0.3841,0.3848,0.3867,0.3883,0.3892,0.3897,0.3907,0.3902,0.3907,0.3897,0.3892,0.3888,0.3886,0.3882,0.3877,0.393,0.393,0.393,0,0,0.3711,0.3731,0.3734,0.3757,0.3772,0.3777,0.3805,0.3811,0.3815,0.3849,0.3853,0.3867,0.3886,0.3884,0.3885,0.3895,0.3873,0.3886,0.3882,0.3883,0.388,0.3875,0.387,0.3929,0.3929,0.3929,0,0,0.3681,0.3698,0.3697,0.3711,0.3732,0.3751,0.375,0.3777,0.3788,0.3792,0.3817,0.3822,0.3838,0.385,0.3858,0.3831,0.3849,0.3833,0.3809,0.3805,0.3801,0.3797,0.3786,0.3781,0.3832,0.3832,0.3832,0,0.3655,0.3666,0.3694,0.3697,0.3706,0.3737,0.3735,0.3747,0.377,0.3775,0.3787,0.3806,0.3821,0.3822,0.3815,0.3821,0.382,0.383,0.3799,0.3796,0.3793,0.3782,0.3778,0.3829,0.383,0.383,0.383,0,0.3633,0.3639,0.3636,0.3658,0.3666,0.3667,0.3694,0.3698,0.3715,0.3732,0.3735,0.3754,0.3768,0.377,0.3786,0.3772,0.3778,0.3794,0.3814,0.3785,0.3776,0.3772,0.3826,0.3827,0.3828,0.3828,0,0,0.3578,0.3615,0.3613,0.3622,0.3648,0.3653,0.3655,0.3669,0.3671,0.3686,0.3687,0.3699,0.3714,0.3723,0.3741,0.3738,0.3712,0.3754,0.3755,0.3744,0.3696,0.3682,0.3677,0.3725,0.3724,0.3724,0.3693,0,0.3551,0.3556,0.3581,0.3578,0.3584,0.3613,0.3614,0.3629,0.3644,0.3651,0.3668,0.3675,0.3695,0.37,0.3699,0.3716,0.3703,0.3719,0.3724,0.3724,0.3717,0.3672,0.3658,0.3628,0.369,0.3689,0.3689,0,0.352,0.3533,0.353,0.3554,0.3558,0.3558,0.3572,0.3578,0.3595,0.3607,0.3616,0.3636,0.3638,0.3658,0.366,0.367,0.3674,0.3683,0.3682,0.3682,0.3703,0.3669,0.3619,0.3614,0.3684,0.3684,0.3684,0,0.3478,0.3495,0.3495,0.3502,0.3531,0.353,0.3542,0.356,0.3566,0.3578,0.3582,0.3594,0.3599,0.3607,0.363,0.3643,0.3628,0.3651,0.3636,0.3635,0.363,0.363,0.3578,0.3636,0.3636,0.3636,0.3636,0,0.3444,0.3441,0.3476,0.3476,0.3473,0.3501,0.3497,0.3511,0.3527,0.3529,0.3556,0.3557,0.3587,0.3592,0.3609,0.3607,0.361,0.3618,0.3622,0.3614,0.3613,0.3616,0.3618,0.3635,0.3635,0.3636,0.3636,0,0.3395,0.342,0.3421,0.3448,0.3455,0.3451,0.3473,0.3474,0.3491,0.3493,0.3496,0.3522,0.3528,0.3552,0.3564,0.3576,0.3567,0.3577,0.3561,0.3564,0.3547,0.3547,0.3494,0.3488,0.3551,0.355,0.355,0,0.3371,0.337,0.3396,0.3399,0.341,0.3416,0.3422,0.3449,0.3454,0.3473,0.347,0.3479,0.3487,0.3496,0.3516,0.3525,0.3534,0.3514,0.3535,0.3527,0.3531,0.353,0.3529,0.3509,0.3508,0.3508,0.3507,0,0.3325,0.3337,0.3345,0.3356,0.3363,0.3374,0.3386,0.3387,0.3417,0.3421,0.3428,0.3434,0.3447,0.3454,0.3466,0.3477,0.3496,0.3501,0.3497,0.3488,0.3478,0.3481,0.3547,0.3501,0.3502,0.3502,0.3503,0.3503,0.3287,0.3286,0.3304,0.3311,0.3323,0.3333,0.3334,0.3351,0.3358,0.337,0.3386,0.339,0.3406,0.3424,0.3434,0.3437,0.3448,0.3443,0.3442,0.344,0.3435,0.3479,0.3439,0.344,0.344,0.344,0.344,0,0.324,0.3253,0.3259,0.3275,0.3281,0.3299,0.3313,0.3316,0.332,0.3333,0.3341,0.3348,0.3355,0.3375,0.3384,0.3382,0.3391,0.3383,0.3383,0.3384,0.3426,0.3427,0.3376,0.3376,0.3376,0.3376,0.3376,0.3376,0.3216,0.3214,0.3228,0.3232,0.3245,0.325,0.3256,0.3265,0.3275,0.3282,0.3288,0.3301,0.3317,0.3327,0.3334,0.3339,0.334,0.3329,0.3338,0.3376,0.3382,0.3388,0.3389,0.333,0.333,0.3295,0.3295,0.3295]},{"header":{"parameterUnit":"m.s-1","parameterCategory":1,"la1":30.2991,"la2":30.254,"lo1":-89.0895,"lo2":-89.0444,"dy":0.0017,"dx":0.0017,"nx":28,"ny":28,"refTime":"2025-09-16T03:00:00:Z","depth":0,"parameterNumber":3,"parameterNumberName":"V-component_of_WINDS"},"data":[0,0,0,0,0,0,0,0,0,0,0,0,0,0,0,0,0,0,0,0,0,0,0,0,0,0,0,0,0,0,0,0,0,0,0,0,0,0,0,0,0,0,0,0,0,0,0,0,0,0,0,0,0,0,0,0,0,0,3.1768,3.1768,0,3.1742,3.1742,3.1742,3.1686,3.1684,3.1683,3.1682,3.1656,3.1656,3.1656,0,0,0,0,0,0,0,0,0,0,0,0,0,3.1769,3.177,3.1768,3.1768,3.1768,3.1742,3.1742,3.1742,3.1686,3.1684,3.1683,3.1682,3.1656,3.1656,3.1657,0,0,0,0,0,0,0,0,0,0,0,0,0,3.1759,3.177,3.1768,3.1737,3.1734,3.1743,3.1742,3.1742,3.1686,3.1684,3.1683,3.1681,3.1656,3.1656,3.1657,3.1694,0,0,3.1658,3.1658,0,0,0,0,0,0,0,0,3.1759,3.1759,3.1742,3.1739,3.1736,3.1715,3.1733,3.1726,3.1687,3.1704,3.1682,3.168,3.1677,3.1676,3.1675,3.1693,3.1692,3.1658,3.1659,3.1659,3.1659,0,0,0,0,0,0,0,3.176,3.176,3.1758,3.1742,3.1738,3.1724,3.172,3.1731,3.1701,3.1703,3.1698,3.1696,3.1675,3.1674,3.1674,3.1691,3.1658,3.1659,3.1659,3.1659,3.1737,3.1739,0,0,0,0,0,0,3.1765,3.176,3.1759,3.1757,3.1743,3.1725,3.1721,3.1724,3.17,3.1695,3.1698,3.1694,3.1674,3.1673,3.1672,3.1713,3.1659,3.1659,3.166,3.1735,3.1738,3.1739,0,0,0,0,0,0,3.1766,3.1766,3.176,3.1758,3.1756,3.1727,3.173,3.1724,3.1723,3.1697,3.1691,3.1702,3.1673,3.1672,3.1689,3.1711,3.166,3.166,3.1733,3.1736,3.1738,3.1796,0,0,0,0,0,0,3.1766,3.1766,3.178,3.1759,3.1756,3.1777,3.1731,3.1725,3.1724,3.1719,3.1699,3.1695,3.1671,3.1688,3.1689,3.1711,3.166,3.1731,3.1735,3.1738,3.1791,3.18,3.1807,0,0,0,0,0,3.1766,3.1798,3.1781,3.1781,3.1773,3.1778,3.1777,3.175,3.1726,3.174,3.1723,3.1695,3.1709,3.169,3.1691,3.1713,3.173,3.1734,3.1737,3.1788,3.1798,3.1807,0,0,0,0,0,0,3.1823,3.1794,3.1776,3.1801,3.1793,3.1769,3.1785,3.1762,3.1759,3.1754,3.172,3.1717,3.1738,3.1728,3.1707,3.1748,3.1715,3.1719,3.1753,3.1763,3.177,3.1771,3.1661,0,0,0,0,0,3.1839,3.1846,3.182,3.1845,3.1842,3.1815,3.1816,3.1795,3.1785,3.1781,3.1765,3.1756,3.1758,3.176,3.1761,3.1791,3.1784,3.1806,3.1814,3.182,3.1824,3.1837,3.1846,3.1752,3.1752,3.1752,0,0,3.1871,3.1856,3.1862,3.1856,3.1847,3.1854,3.1812,3.1821,3.1826,3.1782,3.1797,3.1785,3.1773,3.1796,3.1805,3.1788,3.1849,3.1825,3.1831,3.1831,3.1842,3.1851,3.1858,3.1755,3.1755,3.1754,0,0,3.1933,3.1923,3.1942,3.1933,3.192,3.1902,3.1906,3.1886,3.1876,3.189,3.1857,3.1863,3.1868,3.1859,3.1856,3.1915,3.1888,3.1916,3.1955,3.1969,3.1976,3.1982,3.2001,3.2008,3.192,3.192,3.192,0,3.1974,3.1984,3.1955,3.1966,3.1963,3.1924,3.1943,3.1936,3.1924,3.1923,3.1904,3.1908,3.1898,3.1917,3.1931,3.1931,3.1934,3.1917,3.1977,3.1983,3.1989,3.2006,3.2014,3.1923,3.1923,3.1923,3.1922,0,3.2034,3.2041,3.2058,3.2046,3.2046,3.2061,3.2034,3.2037,3.2017,3.2001,3.2015,3.2001,3.1997,3.2001,3.1981,3.2017,3.2007,3.1984,3.1949,3.2001,3.2017,3.2024,3.1928,3.1927,3.1926,3.1925,0,0,3.213,3.2102,3.2108,3.2102,3.2084,3.2089,3.2102,3.2098,3.2101,3.2094,3.2103,3.2108,3.2086,3.2082,3.2062,3.2074,3.2118,3.2048,3.2047,3.206,3.2155,3.2171,3.2179,3.2102,3.2103,3.2104,3.2155,0,3.2185,3.2205,3.218,3.2205,3.221,3.2174,3.2185,3.2175,3.216,3.2162,3.2146,3.2149,3.2121,3.2118,3.2128,3.2111,3.2136,3.2107,3.2108,3.2109,3.211,3.2188,3.2205,3.2253,3.2161,3.2162,3.2163,0,3.2253,3.2248,3.2274,3.2254,3.2255,3.2266,3.2259,3.2263,3.225,3.2239,3.2234,3.221,3.222,3.2189,3.2202,3.2183,3.2182,3.2174,3.2175,3.2172,3.2137,3.2185,3.2269,3.2275,3.2173,3.2172,3.2171,0,3.2317,3.2318,3.2333,3.2329,3.2307,3.2314,3.2305,3.2292,3.2291,3.2286,3.2284,3.2281,3.2278,3.2276,3.2251,3.2231,3.2266,3.2233,3.2256,3.2256,3.2263,3.2263,3.2346,3.2267,3.2267,3.2266,3.2266,0,3.2381,3.2397,3.2361,3.237,3.2388,3.2358,3.2376,3.2364,3.2352,3.2357,3.2326,3.2332,3.2299,3.2302,3.2282,3.2295,3.2295,3.2285,3.2279,3.2286,3.2287,3.2284,3.2279,3.2268,3.2268,3.2268,3.2267,0,3.2454,3.2431,3.2445,3.2422,3.2417,3.2431,3.2411,3.2418,3.2402,3.2409,3.2409,3.2383,3.2384,3.2359,3.2355,3.2342,3.2362,3.2352,3.2366,3.2362,3.2385,3.2382,3.2467,3.2475,3.2393,3.2394,3.2395,0,3.2495,3.2507,3.2486,3.2487,3.248,3.2483,3.2481,3.2453,3.2452,3.2439,3.2448,3.2446,3.2443,3.2446,3.2426,3.2423,3.241,3.244,3.2409,3.2416,3.2408,3.2407,3.2407,3.2446,3.2447,3.2448,3.2449,0,3.257,3.2558,3.2557,3.2552,3.2551,3.2546,3.2539,3.2542,3.2511,3.2512,3.2512,3.251,3.2505,3.2504,3.2496,3.2486,3.2462,3.2459,3.2463,3.247,3.2477,3.2471,3.2381,3.2456,3.2456,3.2455,3.2455,3.2454,3.2627,3.2635,3.2621,3.2621,3.2612,3.2606,3.2611,3.2595,3.2595,3.2589,3.2573,3.2575,3.2562,3.255,3.2542,3.2543,3.2528,3.2536,3.2537,3.2539,3.2542,3.2478,3.2542,3.2542,3.2542,3.2542,3.2541,0,3.2698,3.2687,3.2687,3.2678,3.2678,3.2655,3.2646,3.2647,3.265,3.264,3.2637,3.2637,3.2635,3.2615,3.2611,3.2615,3.2604,3.2615,3.2613,3.2611,3.2557,3.2552,3.2624,3.2624,3.2624,3.2624,3.2624,3.2624,3.2734,3.2746,3.2733,3.274,3.2729,3.2731,3.2728,3.2722,3.2713,3.2714,3.2712,3.27,3.2685,3.2679,3.2676,3.267,3.2669,3.2684,3.2674,3.2623,3.2615,3.2607,3.2603,3.2684,3.2684,3.2727,3.2728,3.2728]}]]